#timestamp,LO_Frequency,Hit,StdDev 
1510711215.3,286047000.1,N
1510711235.1,286047005.8,N
1510711255.8,286047011.0,N
1510711275.7,286047006.9,N
1510711295.5,286047002.3,N
1510711315.3,286047015.1,N
1510711335.2,286047006.0,N
1510711355.9,286046996.0,N
1510711375.7,286046991.6,N
1510711395.6,286046985.3,N
1510711415.4,286046990.9,N
1510711435.2,286046986.6,N
1510711455.1,286046986.6,N
1510711456.0,286046986.6,N
1510711475.8,286046984.9,N
1510711495.6,286046989.1,N
1510711515.4,286046993.6,N
1510711535.3,286046999.0,N
1510711555.1,286046991.3,N
1510711575.8,286046987.4,N
1510711595.7,286046997.3,N
1510711615.5,286046992.6,N
1510711635.3,286046988.2,N
1510711655.2,286046984.4,N
1510711675.9,286046981.0,N
1510711695.7,286046983.2,N
1510711715.6,286046985.8,N
1510711735.4,286046979.2,N
1510711755.2,286046978.1,N
1510711775.1,286046976.8,N
1510711776.0,286046976.8,N
1510711795.8,286046978.4,N
1510711815.6,286046983.0,N
1510711835.5,286046974.5,N
1510711855.3,286046979.3,N
1510711875.1,286046985.0,N
1510711895.8,286046982.0,N
1510711915.7,286046980.1,Y
1510711935.5,286046987.9,P
1510711955.3,286046990.8,P
1510711975.2,286046992.2,P
1510711995.0,286046994.1,N
1510711995.9,286046994.1,N
1510712015.7,286046991.8,N
1510712035.6,286046990.9,Y
1510712055.4,286047001.0,P
1510712075.2,286046994.2,N
1510712095.1,286046991.0,N
1510712096.0,286046991.0,N
1510712115.8,286046991.4,N
1510712135.6,286046990.4,N
1510712155.5,286046986.2,Y
1510712175.3,286046993.6,P
1510712195.1,286046994.9,P
1510712215.9,286046993.8,P
1510712235.7,286046994.5,Y
1510712255.5,286046995.2,P
1510712275.4,286046990.3,P
1510712295.2,286046990.0,P
1510712315.0,286046988.6,Y
1510712316.0,286046988.6,P
1510712335.8,286046998.2,N
1510712355.6,286047000.7,N
1510712375.4,286046998.2,N
1510712395.3,286047004.1,N
1510712415.1,286046998.9,N
1510712435.8,286046999.9,N
1510712455.7,286046997.2,N
1510712475.5,286046996.7,N
1510712495.3,286046994.9,N
1510712515.2,286046993.3,N
1510712535.9,286046993.6,N
1510712555.7,286046992.2,N
1510712575.6,286046988.5,N
1510712595.4,286046990.2,N
1510712615.2,286046993.0,N
1510712635.0,286046990.4,N
1510712636.0,286046990.4,N
1510712655.8,286046991.5,N
1510712675.6,286047002.8,N
1510712695.4,286046994.0,N
1510712715.3,286047000.6,N
1510712735.1,286047000.2,N
1510712755.8,286046999.1,N
1510712775.7,286047004.0,N
1510712795.5,286047005.5,N
1510712815.3,286046998.9,N
1510712835.2,286046998.3,N
1510712855.9,286046999.7,N
1510712875.7,286047002.7,N
1510712895.6,286046999.3,N
1510712915.4,286046998.4,N
1510712935.2,286047001.2,N
1510712955.0,286047003.2,N
1510712955.9,286047003.2,N
1510712975.8,286047009.1,N
1510712995.6,286047010.5,N
1510713015.4,286047009.7,N
1510713035.3,286047023.4,Y
1510713055.1,286047022.4,P
1510713075.8,286047024.8,N
1510713095.7,286047036.6,P
1510713115.5,286047039.6,N
1510713135.3,286047040.6,N
1510713155.2,286047037.6,N
1510713175.9,286047034.6,N
1510713195.7,286047030.0,N
1510713215.6,286047031.3,N
1510713235.4,286047023.3,N
1510713255.2,286047021.2,N
1510713275.0,286047021.4,N
1510713276.0,286047021.4,N
1510713295.8,286047017.3,N
1510713315.6,286047017.5,N
1510713335.4,286047020.2,N
1510713355.3,286047017.2,N
1510713375.1,286047021.8,N
1510713395.8,286047023.3,N
1510713415.7,286047026.5,N
1510713435.5,286047031.6,Y
1510713455.3,286047002.0,P
1510713475.2,286047009.5,N
1510713495.9,286047016.7,N
1510713515.7,286047015.8,N
1510713535.6,286047017.1,N
1510713555.4,286047013.2,N
1510713575.2,286047015.4,N
1510713595.1,286047010.4,N
1510713596.0,286047010.4,N
1510713615.8,286046999.4,N
1510713635.6,286046997.9,N
1510713655.5,286047004.8,N
1510713675.3,286047002.5,N
1510713695.1,286047005.3,N
1510713715.8,286046996.6,N
1510713735.7,286046992.3,N
1510713755.5,286046987.4,N
1510713775.3,286046987.1,N
1510713795.2,286046982.3,N
1510713815.9,286046978.2,N
1510713835.7,286046986.7,N
1510713855.6,286046990.1,N
1510713875.4,286046990.3,N
1510713895.2,286046983.9,N
1510713915.1,286046988.3,N
1510713916.0,286046988.3,N
1510713935.8,286046983.4,N
1510713955.6,286046979.6,N
1510713975.4,286046977.3,N
1510713995.3,286046981.9,N
1510714015.1,286046983.3,N
1510714035.8,286046984.3,N
1510714055.7,286046984.6,N
1510714075.5,286046983.1,N
1510714095.3,286046977.9,N
1510714115.2,286046971.1,N
1510714135.9,286046972.0,N
1510714155.7,286046969.6,N
1510714175.6,286046968.0,Y
1510714195.4,286046986.7,P
1510714215.2,286046985.8,P
1510714235.1,286046989.9,P
1510714236.0,286046989.9,Y
1510714255.8,286047005.6,P
1510714275.6,286047004.8,N
1510714295.5,286047011.6,N
1510714315.3,286047024.6,N
1510714335.1,286047029.9,N
1510714355.9,286047035.9,N
1510714375.7,286047037.9,N
1510714395.5,286047030.1,N
1510714415.4,286047025.3,N
1510714435.2,286047024.2,N
1510714455.0,286047029.9,N
1510714455.9,286047029.9,N
1510714475.7,286047023.4,N
1510714495.6,286047019.5,N
1510714515.4,286047021.0,N
1510714535.2,286047027.2,N
1510714555.1,286047040.0,Y
1510714556.0,286047040.0,P
1510714575.8,286047019.7,N
1510714595.6,286047022.7,N
1510714615.5,286047028.7,Y
1510714635.3,286047001.1,P
1510714655.1,286046991.8,N
1510714675.9,286046986.4,N
1510714695.7,286046993.2,N
1510714715.5,286046999.7,N
1510714735.4,286047004.8,N
1510714755.2,286047009.9,N
1510714775.0,286047011.9,N
1510714775.9,286047011.9,N
1510714795.8,286047012.0,N
